Date String (YYYY-MM-DD hh:mm:ss) UTC,Instrument flags,absolute air pressure of the measurement (hPa),sample flow rate (lpm),inlet stack bypass flow (lpm),air temperature of the measurement (°C),ambient temperature measured by the external sensor (°C),aerosol sample conditioner tube jacket temperature (°C),OPC LED temperature (°C),internal box temperature (°C),relative humidity of the measurement (%),span deviation,mass concentration of particles derived from Lorenz-Mie calculation of OPC scattering (μg/m³),mass concentration of particles derived from Lorenz-Mie calculation of OPC scattering (μg/m³),mass concentration of particles derived from Lorenz-Mie calculation of OPC scattering (μg/m³)
DateTimeUTC,F1_M11,P_M11,Q1_M11,Q2_M11,T1_M11,T2_M11,T3_M11,T4_M11,T5_M11,U1_M11,ZSPAN_M11,X0_M11,X2_M11,X1_M11
2024-02-18 07:00:00,SystemResetWarning,0830.0,5.01,000.00,018.7,018.6,000.0,027.0,020.3,10.8,0000.0,0001.75,0001.31,0001.11
2024-02-18 07:01:00,SystemResetWarning,0830.0,5.00,000.00,018.7,018.4,000.0,027.0,020.2,10.8,0000.0,0001.74,0001.30,0001.10
2024-02-18 07:02:00,SystemResetWarning,0830.0,4.99,000.00,018.6,018.2,000.0,027.0,020.2,11.1,0000.0,0001.63,0001.26,0001.08
2024-02-18 07:03:00,SystemResetWarning,0830.0,5.00,000.00,018.6,018.1,000.0,027.0,020.2,11.3,0000.0,0001.53,0001.23,0001.08
2024-02-18 07:04:00,SystemResetWarning,0830.0,5.01,000.00,018.6,018.0,000.0,026.9,020.1,11.6,0000.0,0001.52,0001.22,0001.07
2024-02-18 07:05:00,SystemResetWarning,0830.0,5.02,000.00,018.5,017.9,000.0,026.9,020.1,11.9,0000.0,0001.57,0001.23,0001.07
2024-02-18 07:06:00,SystemResetWarning,0830.0,4.99,000.00,018.5,017.8,000.0,026.9,020.0,12.1,0000.0,0001.73,0001.24,0001.06
2024-02-18 07:07:00,SystemResetWarning,0830.0,4.99,000.00,018.4,017.8,000.0,026.9,020.0,12.3,0000.0,0001.63,0001.21,0001.05
2024-02-18 07:08:00,SystemResetWarning,0830.0,4.99,000.00,018.4,017.7,000.0,026.9,020.0,12.6,0000.0,0001.58,0001.18,0001.04
2024-02-18 07:09:00,SystemResetWarning,0830.0,4.99,000.00,018.4,017.7,000.0,026.9,020.0,12.9,0000.0,0001.67,0001.21,0001.05
2024-02-18 07:10:00,SystemResetWarning,0830.0,5.01,000.00,018.4,017.6,000.0,026.9,020.0,13.1,0000.0,0001.83,0001.23,0001.06
2024-02-18 07:11:00,SystemResetWarning,0830.1,5.01,000.00,018.4,017.6,000.0,026.9,020.0,13.1,0000.0,0001.86,0001.26,0001.10
2024-02-18 07:12:00,SystemResetWarning,0830.0,4.98,000.00,018.3,017.6,000.0,026.9,020.0,13.0,0000.0,0001.89,0001.29,0001.14
2024-02-18 07:13:00,SystemResetWarning,0830.0,4.99,000.00,018.3,017.6,000.0,026.9,020.0,13.2,0000.0,0001.96,0001.35,0001.20
2024-02-18 07:14:00,SystemResetWarning,0830.0,5.00,000.00,018.3,017.8,000.0,027.0,020.2,13.3,0000.0,0002.07,0001.44,0001.27
2024-02-18 07:15:00,SystemResetWarning,0830.0,5.02,000.00,018.5,018.5,000.0,027.1,020.6,13.1,0000.0,0002.13,0001.51,0001.34
2024-02-18 07:16:00,SystemResetWarning,0830.0,4.99,000.00,018.7,019.0,000.0,027.1,020.9,12.8,0000.0,0002.22,0001.62,0001.44
2024-02-18 07:17:00,SystemResetWarning,0830.0,5.00,000.00,018.7,018.8,000.0,027.0,020.7,12.8,0000.0,0002.20,0001.73,0001.57
2024-02-18 07:18:00,SystemResetWarning,0829.9,5.00,000.00,018.7,018.7,000.0,027.0,020.4,12.8,0000.0,0002.35,0001.87,0001.70
2024-02-18 07:19:00,SystemResetWarning,0829.9,5.01,000.00,018.7,018.5,000.0,027.0,020.3,12.9,0000.0,0002.64,0002.04,0001.86
2024-02-18 07:20:00,SystemResetWarning,0829.9,5.00,000.00,018.6,018.3,000.0,026.9,020.2,13.0,0000.0,0002.84,0002.22,0002.02
2024-02-18 07:21:00,SystemResetWarning,0829.8,5.00,000.00,018.6,018.2,000.0,026.9,020.1,13.0,0000.0,0002.80,0002.34,0002.15
2024-02-18 07:22:00,SystemResetWarning,0829.8,5.00,000.00,018.5,018.0,000.0,026.9,020.1,13.0,0000.0,0002.90,0002.47,0002.29
2024-02-18 07:23:00,SystemResetWarning,0829.8,5.00,000.00,018.5,017.9,000.0,026.9,020.0,13.1,0000.0,0003.81,0002.62,0002.42
2024-02-18 07:24:00,SystemResetWarning,0829.8,4.99,000.00,018.5,017.8,000.0,026.9,020.0,13.1,0000.0,0004.41,0002.72,0002.51
2024-02-18 07:25:00,SystemResetWarning,0829.8,5.00,000.00,018.4,017.7,000.0,026.9,020.0,13.1,0000.0,0004.51,0002.80,0002.58
2024-02-18 07:26:00,SystemResetWarning,0829.8,5.00,000.00,018.4,017.7,000.0,026.9,020.0,13.2,0000.0,0004.70,0002.91,0002.67
2024-02-18 07:27:00,SystemResetWarning,0829.7,5.01,000.00,018.4,017.6,000.0,026.9,020.0,13.3,0000.0,0004.80,0002.97,0002.73
2024-02-18 07:28:00,SystemResetWarning,0829.7,5.00,000.00,018.4,017.6,000.0,026.9,020.0,13.3,0000.0,0004.92,0003.03,0002.77
2024-02-18 07:29:00,SystemResetWarning,0829.7,5.00,000.00,018.3,017.6,000.0,026.9,020.0,13.3,0000.0,0006.41,0003.07,0002.80
2024-02-18 07:30:00,SystemResetWarning,0829.7,5.00,000.00,018.3,017.5,000.0,026.9,020.0,13.3,0000.0,0006.58,0003.08,0002.81
2024-02-18 07:31:00,SystemResetWarning,0829.7,5.00,000.00,018.3,017.7,000.0,027.0,020.1,13.4,0000.0,0006.83,0003.11,0002.83
2024-02-18 07:32:00,SystemResetWarning,0829.7,5.00,000.00,018.5,018.5,000.0,027.1,020.6,13.3,0000.0,0007.05,0003.16,0002.87
2024-02-18 07:33:00,SystemResetWarning,0829.7,5.00,000.00,018.7,019.0,000.0,027.1,020.9,13.2,0000.0,0007.09,0003.17,0002.89
2024-02-18 07:34:00,SystemResetWarning,0829.7,4.99,000.00,018.7,018.8,000.0,027.0,020.7,13.2,0000.0,0006.29,0003.16,0002.89
2024-02-18 07:35:00,SystemResetWarning,0829.6,5.01,000.00,018.7,018.7,000.0,027.0,020.5,13.2,0000.0,0005.86,0003.19,0002.94
2024-02-18 07:36:00,SystemResetWarning,0829.6,5.01,000.00,018.7,018.5,000.0,026.9,020.3,13.2,0000.0,0005.85,0003.21,0003.00
2024-02-18 07:37:00,SystemResetWarning,0829.6,5.00,000.00,018.6,018.3,000.0,026.9,020.2,13.2,0000.0,0006.09,0003.23,0003.05
2024-02-18 07:38:00,SystemResetWarning,0829.6,4.99,000.00,018.6,018.2,000.0,026.9,020.1,13.2,0000.0,0006.78,0003.27,0003.09
2024-02-18 07:39:00,SystemResetWarning,0829.6,5.00,000.00,018.5,018.0,000.0,026.9,020.1,13.2,0000.0,0006.82,0003.30,0003.13
2024-02-18 07:40:00,SystemResetWarning,0829.5,5.00,000.00,018.5,017.9,000.0,026.9,020.1,13.2,0000.0,0005.50,0003.34,0003.16
2024-02-18 07:41:00,SystemResetWarning,0829.6,5.00,000.00,018.5,017.8,000.0,026.9,020.0,13.2,0000.0,0005.42,0003.37,0003.20
2024-02-18 07:42:00,SystemResetWarning,0829.6,5.00,000.00,018.4,017.8,000.0,026.9,020.0,13.2,0000.0,0005.35,0003.40,0003.23
2024-02-18 07:43:00,SystemResetWarning,0829.6,5.01,000.00,018.4,017.7,000.0,026.9,020.0,13.2,0000.0,0005.28,0003.41,0003.25
2024-02-18 07:44:00,SystemResetWarning,0829.6,5.01,000.00,018.4,017.7,000.0,026.9,020.0,13.1,0000.0,0005.36,0003.44,0003.29
2024-02-18 07:45:00,SystemResetWarning,0829.6,5.00,000.00,018.4,017.6,000.0,026.9,020.0,13.1,0000.0,0005.51,0003.49,0003.32
2024-02-18 07:46:00,SystemResetWarning,0829.5,5.01,000.00,018.3,017.6,000.0,026.9,020.0,13.2,0000.0,0005.58,0003.52,0003.34
2024-02-18 07:47:00,SystemResetWarning,0829.5,5.00,000.00,018.3,017.5,000.0,026.9,020.0,13.2,0000.0,0005.61,0003.53,0003.35
2024-02-18 07:48:00,SystemResetWarning,0829.4,5.00,000.00,018.3,017.5,000.0,026.9,020.0,13.2,0000.0,0005.60,0003.54,0003.36
2024-02-18 07:49:00,SystemResetWarning,0829.5,5.01,000.00,018.4,018.0,000.0,027.0,020.3,13.1,0000.0,0004.87,0003.56,0003.37
2024-02-18 07:50:00,SystemResetWarning,0829.5,5.01,000.00,018.6,018.8,000.0,027.1,020.8,13.1,0000.0,0004.96,0003.57,0003.37
2024-02-18 07:51:00,SystemResetWarning,0829.4,4.97,000.00,018.8,019.0,000.0,027.1,020.9,12.8,0000.0,0004.92,0003.56,0003.37
2024-02-18 07:52:00,SystemResetWarning,0829.4,5.01,000.00,018.7,018.8,000.0,027.0,020.6,12.8,0000.0,0004.90,0003.57,0003.37
2024-02-18 07:53:00,SystemResetWarning,0829.3,5.01,000.00,018.7,018.6,000.0,027.0,020.4,12.7,0000.0,0004.95,0003.53,0003.34
2024-02-18 07:54:00,SystemResetWarning,0829.3,4.99,000.00,018.6,018.5,000.0,026.9,020.2,12.7,0000.0,0004.93,0003.50,0003.32
2024-02-18 07:55:00,SystemResetWarning,0829.3,4.99,000.00,018.6,018.3,000.0,026.9,020.2,12.7,0000.0,0004.89,0003.47,0003.30
2024-02-18 07:56:00,SystemResetWarning,0829.3,5.00,000.00,018.6,018.1,000.0,026.9,020.1,12.7,0000.0,0004.92,0003.46,0003.28
2024-02-18 07:57:00,SystemResetWarning,0829.4,5.01,000.00,018.5,018.0,000.0,026.9,020.1,12.7,0000.0,0004.91,0003.45,0003.28
2024-02-18 07:58:00,SystemResetWarning,0829.4,5.01,000.00,018.5,017.9,000.0,026.9,020.0,12.7,0000.0,0004.95,0003.46,0003.28
2024-02-18 07:59:00,SystemResetWarning,0829.4,5.00,000.00,018.5,017.8,000.0,026.9,020.0,12.7,0000.0,0004.97,0003.47,0003.28
